Regional Weather Roundup
Issued by NWS Northern Indiana

Home | Current Version | Previous Version | Text Only | Print | Product List | Glossary Off
Versions: 1 2 3 4 5 6 7 8 9 10 11 12 13 14 15 16 17 18 19 20 21 22 23 24 25 26 27 28 29 30 31 32 33 34 35 36 37 38 39 40 41 42 43 44 45 46 47 48 49 50

273
ASUS43 KIWX 100700
RWRIWX

KIWX WEATHER ROUNDUP
NATIONAL WEATHER SERVICE NORTHERN INDIANA
200 AM EST SAT DEC 10 2016

NOTE: "FAIR" INDICATES FEW OR NO CLOUDS BELOW 12,000 FEET WITH NO
SIGNIFICANT WEATHER AND/OR OBSTRUCTIONS TO VISIBILITY.

* THESE STATIONS ARE NOT UNDER NWS QUALITY CONTROL. THEY ALSO MAY NOT
  REPORT WEATHER SUCH AS PRECIPITATION OR FOG.

INZ001>027-100800-
NORTHERN INDIANA

CITY           SKY/WX    TMP DP  RH WIND       PRES   REMARKS
SOUTH BEND     CLOUDY    19  13  77 SW9       30.47S WCI   8
GOSHEN         CLOUDY    20  11  68 W9        30.47S WCI   9
ANGOLA*        CLOUDY    19  16  86 W7        30.43S WCI  10
FORT WAYNE     MOCLDY    19  12  74 W10       30.49S WCI   7
PERU/GRISSOM   CLOUDY    22  12  66 W8        30.49R WCI  12

$$
INZ028>050-100800-
CENTRAL INDIANA

CITY           SKY/WX    TMP DP  RH WIND       PRES   REMARKS
LAFAYETTE      CLOUDY    23  15  71 W6        30.53S WCI  16
KOKOMO*        CLOUDY    21  14  74 W7        30.52R WCI  12
MUNCIE*        CLOUDY    24  17  74 W8        30.50R WCI  15
INDIANAPOLIS   CLOUDY    22  17  81 W8        30.52S WCI  12

$$
MIZ043>046-050>051-056>058-064>065-071>073-077>080-100800-
SOUTHWEST LOWER MICHIGAN

CITY           SKY/WX    TMP DP  RH WIND       PRES   REMARKS
BATTLE CREEK   LGT SNOW  22  20  92 SW7       30.42S FOG     WCI  13
BENTON HARBOR  CLOUDY    27  13  55 W9        30.45F WCI  18
COLDWATER*     FLURRIES  21  18  86 W8        30.43S WCI  11
HILLSDALE*     CLOUDY    19  18  93 W8G16     30.40S WCI   9
HOLLAND        LGT SNOW  26  16  65 W12G18    30.43S WCI  16
GRAND RAPIDS   CLOUDY    23  15  71 W10       30.42S WCI  12
KALAMAZOO      LGT SNOW  22  17  81 SW8       30.43S WCI  12
STURGIS*       CLOUDY    20  17  86 W8        30.43F WCI  11
THREE RIVERS*  CLOUDY    21  18  86 W5        30.45S WCI  15

$$
OHZ001>008-015>018-024>025-100800-
NORTHWEST OHIO

CITY           SKY/WX    TMP DP  RH WIND       PRES   REMARKS
DEFIANCE       MOCLDY    24  13  62 W6        30.47S WCI  17
FINDLAY        CLOUDY    23  14  68 W10       30.46R WCI  12
TOLEDO EXPRESS CLOUDY    24  17  74 W16       30.45R WCI  11
TOLEDO METCALF CLOUDY    25  17  72 W13       30.45S WCI  14
LIMA           CLOUDY    21  17  84 W9        30.46R WCI  11

$$
AND FOR LAKE MICHIGAN COASTAL AND OPEN LAKE BUOY OBSERVATIONS

STATION/POSITION TEMP    WIND        PRES    VSBY  WAVE
                 AIR SEA DIR/SP/G                  HT/PER
                 (F)     (DEG/KT/KT) (MB)    (MI)  (FT/S)
CALUMET HARBOR    20     230/  7/ 11 1032.3S
BURNS HARBOR      23     250/ 12/ 17 1032.8F
SAINT JOSEPH      29     280/ 13/ 17 1032.2

$$
&&




USA.gov is the U.S. government's official web portal to all federal, state and local government web resources and services.